Location: Unspecified
(0.0000°N, 0.0000°E)
Time: 00:08:49
(UTC+00:00)

Envisat - Pass Details

Date: 18 January 2021
Orbit: 764 x 766 km, 98.1° (Epoch: 16 January)

Event Time Altitude Azimuth Distance (km) Brightness Sun altitude
Rises 04:09:16 0° 54° (NE) 3,218 6.6 -28.2°
Reaches altitude 10° 04:14:09 10° 96° (E) 2,297 6.4 -27.1°
Maximum altitude 04:14:44 10° 103° (ESE) 2,285 6.4 -26.9°
Drops below altitude 10° 04:15:19 10° 110° (ESE) 2,299 6.5 -26.8°
Sets 04:20:12 0° 152° (SSE) 3,229 7.0 -25.7°
